#timestamp,LO_Frequency,Hit,StdDev 
1506690015.4,286046987.2,P
1506690035.3,286046987.8,N
1506690055.1,286046979.5,N
1506690056.0,286046979.5,N
1506690075.8,286046975.8,N
1506690095.7,286046975.5,N
1506690115.5,286046975.4,N
1506690135.3,286046975.6,N
1506690155.1,286046977.0,N
1506690175.9,286046974.1,Y
1506690195.3,286046999.1,P
1506690215.1,286047001.7,N
1506690235.8,286047007.0,N
1506690255.7,286047009.8,N
1506690275.5,286047013.8,N
1506690295.3,286047017.2,N
1506690315.2,286047015.6,N
1506690335.9,286047012.2,N
1506690355.7,286047006.2,N
1506690375.6,286047007.3,N
1506690395.4,286047003.3,N
1506690415.2,286046999.2,N
1506690435.1,286046993.5,N
1506690436.0,286046993.5,N
1506690455.8,286046992.6,N
1506690475.6,286046993.2,N
1506690495.4,286046997.1,N
1506690515.3,286047001.1,N
1506690535.1,286046997.5,N
1506690555.8,286046995.2,N
1506690575.7,286046991.9,N
1506690595.5,286046995.6,N
1506690615.3,286046997.8,N
1506690635.2,286046997.5,N
1506690655.9,286046995.2,N
1506690675.7,286046997.5,N
1506690695.6,286047000.7,N
1506690715.4,286046999.3,N
1506690735.2,286046999.7,N
1506690755.0,286047002.2,N
1506690756.0,286047002.2,N
1506690775.8,286047001.5,N
1506690795.6,286047005.3,N
1506690815.4,286047006.5,N
1506690835.3,286047008.6,N
1506690855.1,286047004.5,N
1506690875.8,286047002.1,N
1506690895.7,286047001.9,N
1506690915.5,286047000.0,N
1506690935.3,286046999.2,N
1506690955.2,286046997.4,N
1506690975.9,286046993.1,N
1506690995.7,286046987.1,Y
1506691015.6,286046989.6,P
1506691035.4,286046986.3,N
1506691055.2,286046983.4,P
1506691075.1,286046983.5,N
1506691076.0,286046983.5,N
1506691095.8,286046984.2,N
1506691115.6,286046987.6,N
1506691135.5,286046984.9,Y
1506691155.3,286046995.6,P
1506691175.1,286047002.0,N
1506691195.9,286047003.1,N
1506691215.7,286047006.2,N
1506691235.5,286047009.1,N
1506691255.4,286047008.1,N
1506691275.2,286047010.9,N
1506691295.0,286047014.3,N
1506691295.9,286047014.3,N
1506691315.8,286047015.7,N
1506691335.6,286047020.4,N
1506691355.4,286047016.3,N
1506691375.2,286047013.0,N
1506691395.1,286047013.2,N
1506691396.0,286047013.2,N
1506691415.8,286047013.1,N
1506691435.6,286047004.6,N
1506691455.5,286047002.4,N
1506691475.3,286046995.8,N
1506691495.1,286046990.3,N
1506691515.9,286046992.5,N
1506691535.7,286046997.4,N
1506691555.5,286046995.7,N
1506691575.4,286046990.0,N
1506691595.2,286046989.4,N
1506691615.0,286046994.2,N
1506691615.9,286046994.2,N
1506691635.8,286046994.9,N
1506691655.6,286047000.4,N
1506691675.4,286046999.8,N
1506691695.3,286047000.3,N
1506691715.1,286047006.6,N
1506691716.0,286047006.6,N
1506691735.8,286047009.4,N
1506691755.7,286047011.9,N
1506691775.5,286047012.3,N
1506691795.3,286047011.7,N
1506691815.2,286047009.4,N
1506691835.9,286047008.3,N
1506691855.7,286047006.8,N
1506691875.5,286047001.7,N
1506691895.4,286047003.9,N
1506691915.2,286047010.8,N
1506691935.0,286047011.3,N
1506691935.9,286047011.3,N
1506691955.8,286047015.2,N
1506691975.6,286047016.6,N
1506691995.4,286047019.3,N
1506692015.3,286047019.2,N
1506692035.1,286047023.2,N
1506692055.8,286047021.8,N
1506692075.7,286047023.1,N
1506692095.5,286047026.1,N
1506692115.3,286047027.5,N
1506692135.2,286047026.9,N
1506692155.9,286047029.6,Y
1506692175.7,286047015.3,P
1506692195.6,286047011.8,P
1506692215.4,286047012.1,P
1506692235.2,286047011.1,Y
1506692255.1,286046997.9,P
1506692256.0,286046997.9,N
1506692275.8,286046992.9,N
1506692295.7,286046988.9,N
1506692315.5,286046994.3,N
1506692335.3,286046993.1,N
1506692355.1,286046987.5,N
1506692375.9,286046984.4,N
1506692395.7,286046977.8,N
1506692415.5,286046977.9,N
1506692435.4,286046976.4,N
1506692455.2,286046976.7,N
1506692475.0,286046971.6,N
1506692475.9,286046971.6,N
1506692495.8,286046973.5,N
1506692515.6,286046973.9,N
1506692535.4,286046974.5,N
1506692555.3,286046974.0,N
1506692575.1,286046971.7,N
1506692576.0,286046971.7,N
1506692595.8,286046971.5,N
1506692615.7,286046973.1,N
1506692635.5,286046974.8,N
1506692655.3,286046981.5,N
1506692675.1,286046983.1,N
1506692695.9,286046980.6,N
1506692715.7,286046983.9,N
1506692735.5,286046982.3,N
1506692755.4,286046985.8,N
1506692775.2,286046984.1,N
1506692795.0,286046982.9,N
1506692795.9,286046982.9,N
1506692815.8,286046977.7,Y
1506692835.6,286047000.8,P
1506692855.4,286047001.0,N
1506692875.3,286046999.0,N
1506692895.1,286046996.7,N
1506692915.8,286046996.6,N
1506692935.7,286046993.0,N
1506692955.5,286046991.7,N
1506692975.3,286046992.6,N
1506692995.2,286046990.4,N
1506693015.9,286046989.9,N
1506693035.7,286046988.6,N
1506693055.6,286046988.6,N
1506693075.4,286046988.9,N
1506693095.2,286046989.5,N
1506693115.1,286046983.5,Y
1506693116.0,286046983.5,P
1506693135.8,286046990.2,N
1506693155.6,286046994.1,N
1506693175.5,286046994.3,N
1506693195.3,286046994.6,N
1506693215.1,286046994.3,N
1506693235.8,286046993.8,N
1506693255.7,286046994.4,N
1506693275.5,286046995.8,N
1506693295.3,286046996.6,N
1506693315.2,286046997.0,N
1506693335.0,286046995.4,N
1506693335.9,286046995.4,N
1506693355.7,286047000.6,N
1506693375.6,286046999.7,N
1506693395.4,286047005.1,N
1506693415.2,286047004.7,N
1506693435.1,286047006.9,N
1506693436.0,286047006.9,N
1506693455.8,286047011.0,N
1506693475.6,286047010.4,N
1506693495.5,286047006.5,N
1506693515.3,286047012.3,N
1506693535.1,286047011.1,N
1506693555.9,286047008.2,N
1506693575.7,286047009.6,N
1506693595.5,286047008.8,N
